Date String (YYYY-MM-DD hh:mm:ss) UTC,Instrument flags,Ambient pressure (hPa),Sample flow (lpm),Bypass flow (lpm),Sample temperature (°C),Ambient temperature (°C),ASC tube jacket temperature (°C),LED temperature (°C),Box temperature (°C),Sample RH (%),Span deviation,Mass concentration (μg/m³),Mass concentration (μg/m³),Mass concentration (μg/m³)
DateTimeUTC,F1_M11,P_M11,Q1_M11,Q2_M11,T1_M11,T2_M11,T3_M11,T4_M11,T5_M11,U1_M11,ZSPAN_M11,X0_M11,X2_M11,X1_M11
2021-11-20 09:00:00,,0825.0,5.01,0.00,26.8,25.8,00.0,35.8,28.5,10.6,0000.0,0007.40,0004.06,0003.52
2021-11-20 09:01:00,,0824.9,4.99,0.00,26.8,25.8,00.0,35.8,28.6,10.6,0000.0,0007.31,0004.04,0003.53
2021-11-20 09:02:00,,0825.0,5.00,0.00,26.8,25.8,00.0,35.8,28.6,10.6,0000.0,0007.71,0004.05,0003.54
2021-11-20 09:03:00,,0825.0,5.01,0.00,26.8,25.8,00.0,35.8,28.5,10.6,0000.0,0008.77,0004.06,0003.55
2021-11-20 09:04:00,,0825.0,5.01,0.00,26.8,25.8,00.0,35.8,28.5,10.6,0000.0,0009.10,0004.05,0003.54
2021-11-20 09:05:00,,0825.0,4.99,0.00,26.8,25.8,00.0,35.8,28.5,10.6,0000.0,0009.28,0003.99,0003.53
2021-11-20 09:06:00,,0824.9,5.01,0.00,26.8,25.8,00.0,35.8,28.5,10.6,0000.0,0009.30,0003.99,0003.53
2021-11-20 09:07:00,,0824.9,4.98,0.00,26.8,25.8,00.0,35.8,28.5,10.6,0000.0,0009.02,0003.96,0003.52
2021-11-20 09:08:00,,0824.9,5.00,0.00,26.8,25.8,00.0,35.8,28.5,10.6,0000.0,0008.83,0003.92,0003.51
2021-11-20 09:09:00,,0824.9,5.01,0.00,26.8,25.8,00.0,35.8,28.5,10.6,0000.0,0008.82,0003.92,0003.52
2021-11-20 09:10:00,,0824.9,4.99,0.00,26.8,25.8,00.0,35.8,28.5,10.6,0000.0,0008.71,0003.89,0003.52
2021-11-20 09:11:00,,0824.9,5.01,0.00,26.8,25.8,00.0,35.8,28.5,10.6,0000.0,0008.94,0003.85,0003.51
2021-11-20 09:12:00,,0825.0,5.00,0.00,26.8,25.8,00.0,35.8,28.6,10.6,0000.0,0009.18,0003.90,0003.51
2021-11-20 09:13:00,,0825.0,4.99,0.00,26.8,25.8,00.0,35.8,28.5,10.6,0000.0,0008.81,0003.87,0003.49
2021-11-20 09:14:00,,0825.0,5.01,0.00,26.8,25.8,00.0,35.8,28.5,10.6,0000.0,0007.66,0003.84,0003.47
2021-11-20 09:15:00,,0824.9,5.01,0.00,26.8,25.8,00.0,35.8,28.5,10.6,0000.0,0007.18,0003.83,0003.46
2021-11-20 09:16:00,,0824.9,5.00,0.00,26.8,25.8,00.0,35.8,28.5,10.6,0000.0,0007.21,0003.84,0003.45
2021-11-20 09:17:00,,0825.0,4.99,0.00,26.8,25.8,00.0,35.8,28.5,10.6,0000.0,0008.03,0003.84,0003.44
2021-11-20 09:18:00,,0825.0,5.00,0.00,26.8,25.8,00.0,35.8,28.5,10.6,0000.0,0008.35,0003.82,0003.43
2021-11-20 09:19:00,,0825.1,5.02,0.00,26.8,25.8,00.0,35.8,28.5,10.6,0000.0,0008.46,0003.84,0003.42
2021-11-20 09:20:00,,0825.1,4.98,0.00,26.7,25.8,00.0,35.8,28.5,10.6,0000.0,0008.49,0003.83,0003.42
2021-11-20 09:21:00,,0825.1,5.00,0.00,26.7,25.7,00.0,35.8,28.5,10.6,0000.0,0008.60,0003.84,0003.41
2021-11-20 09:22:00,,0825.0,5.00,0.00,26.7,25.7,00.0,35.8,28.4,10.6,0000.0,0008.46,0003.86,0003.40
2021-11-20 09:23:00,,0825.0,5.00,0.00,26.7,25.7,00.0,35.8,28.4,10.6,0000.0,0008.29,0003.81,0003.38
2021-11-20 09:24:00,,0825.0,4.99,0.00,26.7,25.7,00.0,35.8,28.4,10.6,0000.0,0008.29,0003.82,0003.38
2021-11-20 09:25:00,,0825.0,5.00,0.00,26.7,25.7,00.0,35.8,28.5,10.6,0000.0,0008.27,0003.82,0003.39
2021-11-20 09:26:00,,0825.1,4.99,0.00,26.7,25.7,00.0,35.8,28.5,10.7,0000.0,0009.00,0003.84,0003.39
2021-11-20 09:27:00,,0825.1,5.02,0.00,26.7,25.7,00.0,35.8,28.5,10.7,0000.0,0010.02,0003.88,0003.41
2021-11-20 09:28:00,,0825.1,4.99,0.00,26.7,25.7,00.0,35.7,28.5,10.6,0000.0,0009.40,0003.86,0003.41
2021-11-20 09:29:00,,0825.1,5.01,0.00,26.7,25.7,00.0,35.7,28.4,10.6,0000.0,0009.01,0003.88,0003.42
2021-11-20 09:30:00,,0825.1,5.00,0.00,26.7,25.7,00.0,35.7,28.4,10.7,0000.0,0009.05,0003.90,0003.43
2021-11-20 09:31:00,,0825.1,5.00,0.00,26.7,25.7,00.0,35.7,28.4,10.7,0000.0,0009.09,0003.90,0003.43
2021-11-20 09:32:00,,0825.1,5.00,0.00,26.7,25.7,00.0,35.7,28.4,10.7,0000.0,0009.19,0003.93,0003.44
2021-11-20 09:33:00,,0825.1,5.00,0.00,26.7,25.7,00.0,35.7,28.5,10.7,0000.0,0009.18,0003.94,0003.43
2021-11-20 09:34:00,,0825.2,5.00,0.00,26.7,25.7,00.0,35.7,28.4,10.7,0000.0,0009.18,0003.98,0003.44
2021-11-20 09:35:00,,0825.2,5.00,0.00,26.6,25.7,00.0,35.7,28.4,10.7,0000.0,0009.18,0003.98,0003.45
2021-11-20 09:36:00,,0825.3,5.00,0.00,26.6,25.7,00.0,35.7,28.4,10.7,0000.0,0009.19,0003.99,0003.45
2021-11-20 09:37:00,,0825.3,4.99,0.00,26.6,25.7,00.0,35.7,28.4,10.7,0000.0,0008.66,0003.97,0003.45
2021-11-20 09:38:00,,0825.4,5.00,0.00,26.6,25.7,00.0,35.7,28.4,10.7,0000.0,0007.24,0003.92,0003.44
2021-11-20 09:39:00,,0825.3,5.01,0.00,26.6,25.7,00.0,35.7,28.4,10.7,0000.0,0007.04,0003.93,0003.43
2021-11-20 09:40:00,,0825.2,5.00,0.00,26.6,25.7,00.0,35.7,28.4,10.7,0000.0,0007.03,0003.93,0003.44
2021-11-20 09:41:00,,0825.2,4.99,0.00,26.6,25.7,00.0,35.7,28.4,10.7,0000.0,0006.85,0003.89,0003.43
2021-11-20 09:42:00,,0825.1,5.01,0.00,26.6,25.7,00.0,35.7,28.4,10.7,0000.0,0007.44,0003.89,0003.42
2021-11-20 09:43:00,,0825.1,5.01,0.00,26.6,25.7,00.0,35.7,28.4,10.7,0000.0,0007.69,0003.88,0003.42
2021-11-20 09:44:00,,0825.1,5.00,0.00,26.6,25.7,00.0,35.7,28.4,10.7,0000.0,0007.74,0003.87,0003.44
2021-11-20 09:45:00,,0825.1,4.99,0.00,26.6,25.7,00.0,35.7,28.4,10.7,0000.0,0008.14,0003.84,0003.44
2021-11-20 09:46:00,,0825.2,5.02,0.00,26.6,25.7,00.0,35.6,28.4,10.7,0000.0,0009.08,0003.86,0003.45
2021-11-20 09:47:00,,0825.2,4.99,0.00,26.6,25.7,00.0,35.6,28.4,10.7,0000.0,0009.11,0003.87,0003.46
2021-11-20 09:48:00,,0825.3,5.00,0.00,26.6,25.6,00.0,35.6,28.3,10.7,0000.0,0009.30,0003.89,0003.47
2021-11-20 09:49:00,,0825.3,5.00,0.00,26.6,25.6,00.0,35.6,28.3,10.7,0000.0,0009.49,0003.89,0003.49
2021-11-20 09:50:00,,0825.3,4.99,0.00,26.6,25.6,00.0,35.6,28.3,10.7,0000.0,0009.46,0003.88,0003.50
2021-11-20 09:51:00,,0825.2,5.01,0.00,26.6,25.6,00.0,35.6,28.4,10.7,0000.0,0009.46,0003.87,0003.51
2021-11-20 09:52:00,,0825.1,5.00,0.00,26.6,25.6,00.0,35.6,28.4,10.7,0000.0,0009.89,0003.89,0003.51
2021-11-20 09:53:00,,0825.0,4.99,0.00,26.6,25.6,00.0,35.6,28.4,10.7,0000.0,0010.22,0003.89,0003.52
2021-11-20 09:54:00,,0824.9,5.00,0.00,26.6,25.6,00.0,35.6,28.4,10.7,0000.0,0009.87,0003.89,0003.52
2021-11-20 09:55:00,,0825.0,5.00,0.00,26.6,25.6,00.0,35.6,28.4,10.7,0000.0,0009.62,0003.86,0003.52
2021-11-20 09:56:00,,0825.1,5.00,0.00,26.6,25.6,00.0,35.6,28.4,10.7,0000.0,0009.29,0003.86,0003.52
2021-11-20 09:57:00,,0825.1,5.00,0.00,26.6,25.7,00.0,35.6,28.3,10.7,0000.0,0008.36,0003.83,0003.51
2021-11-20 09:58:00,,0825.1,5.01,0.00,26.6,25.7,00.0,35.6,28.3,10.7,0000.0,0008.05,0003.83,0003.50
2021-11-20 09:59:00,,0825.1,4.99,0.00,26.6,25.7,00.0,35.6,28.3,10.7,0000.0,0008.07,0003.83,0003.50
